AI5ON Weather Reports


time (UTC)temp
F
wind
direction
speed
knots
gust
knots
rain 1hr
in
rain 24hr
in
rain mn
in
humidity
%
barometer
mb
20260902110559 77 84 0.9 1.7 0.00 0.00 0.00 99 1015.6
20260902110055 77 83 0.0 0.9 0.00 0.00 0.00 99 1015.5
20260902105555 77 83 0.0 0.9 0.00 0.00 0.00 99 1015.4
20260902105054 77 83 0.0 1.7 0.00 0.00 0.00 99 1015.6
20260902104550 77 105 0.9 0.9 0.00 0.00 0.00 99 1015.4
20260902104045 76 105 0.0 0.9 0.00 0.00 0.00 99 1015.3
20260902103540 76 105 1.7 1.7 0.00 0.00 0.00 99 1015.3
20260902103035 76 105 0.9 0.9 0.00 0.00 0.00 99 1015.4
20260902102532 76 105 0.9 0.9 0.00 0.00 0.00 99 1015.1
20260902102029 77 105 0.9 0.9 0.00 0.00 0.00 99 1015.4
20260902101524 77 106 0.0 0.0 0.00 0.00 0.00 99 1015.5
20260902101022 77 106 0.0 0.0 0.00 0.00 0.00 99 1015.2
20260902100517 77 106 0.0 0.0 0.00 0.00 0.00 99 1015.2
20260902100017 77 106 0.0 0.0 0.00 0.00 0.00 99 1015.5
20260902095517 77 106 0.0 0.0 0.00 0.00 0.00 99 1015.3
20260902095016 77 106 0.0 0.0 0.00 0.00 0.00 99 1015.4
20260902094512 77 106 0.0 0.0 0.00 0.00 0.00 99 1015.2
20260902094007 77 106 0.0 0.0 0.00 0.00 0.00 99 1015.3
20260902093502 77 106 0.0 0.0 0.00 0.00 0.00 99 1015.3
20260902093001 77 105 0.0 0.0 0.00 0.00 0.00 99 1015.2
20260902092457 77 105 0.0 0.0 0.00 0.00 0.00 99 1015.4
20260902091956 77 106 0.0 0.0 0.00 0.00 0.00 99 1015.3
20260902091452 77 105 0.0 0.9 0.00 0.00 0.00 99 1015.4
20260902090948 77 105 0.0 0.0 0.00 0.00 0.00 99 1015.5
20260902090443 77 106 0.0 0.0 0.00 0.00 0.00 99 1015.3
20260902085942 77 105 0.0 0.9 0.00 0.00 0.00 99 1015.3
20260902085437 77 105 0.0 0.0 0.00 0.00 0.00 99 1015.4
20260902084932 77 105 0.0 0.9 0.00 0.00 0.00 99 1015.4
20260902084429 77 105 0.9 0.9 0.00 0.00 0.00 99 1015.4
20260902083925 77 106 0.0 0.0 0.00 0.00 0.00 99 1015.4
20260902083424 77 105 0.0 0.0 0.00 0.00 0.00 99 1015.5
20260902082919 77 106 0.0 0.0 0.00 0.00 0.00 99 1015.4
20260902082415 77 105 0.0 0.0 0.00 0.00 0.00 99 1015.3
20260902081911 77 105 0.9 0.9 0.00 0.00 0.00 99 1015.1
20260902081407 77 105 0.9 0.9 0.00 0.00 0.00 99 1015.4
20260902080902 77 105 0.0 1.7 0.00 0.00 0.00 99 1015.2
20260902080358 77 106 0.0 0.9 0.00 0.00 0.00 99 1015.4
20260902075857 77 106 0.0 0.9 0.00 0.00 0.00 99 1015.4
20260902075354 77 106 0.0 0.0 0.00 0.00 0.00 99 1015.6
20260902074849 77 106 0.9 1.7 0.00 0.00 0.00 99 1015.5
20260902074345 77 114 0.9 0.9 0.00 0.00 0.00 99 1015.5
20260902073839 77 114 0.9 0.9 0.00 0.00 0.00 99 1015.5
20260902073336 77 114 0.0 0.9 0.00 0.00 0.00 99 1015.4
20260902072832 77 114 0.0 0.9 0.00 0.00 0.00 99 1015.5
20260902072327 77 114 0.9 0.9 0.00 0.00 0.00 99 1015.5
20260902071824 77 114 0.0 0.0 0.00 0.00 0.00 99 1015.6
20260902071324 77 114 0.0 0.0 0.00 0.00 0.00 99 1015.6
20260902070820 77 114 0.0 0.0 0.00 0.00 0.00 99 1015.5
20260902070320 77 114 0.9 0.9 0.00 0.00 0.00 99 1015.5
20260902065818 77 114 0.0 0.9 0.00 0.00 0.00 99 1015.5
20260902065314 77 114 0.0 0.0 0.00 0.00 0.00 99 1015.5
20260902064809 77 114 0.0 0.9 0.00 0.00 0.00 99 1015.5
20260902064305 77 114 0.0 0.9 0.00 0.00 0.00 99 1015.6
20260902063801 77 114 0.0 0.9 0.00 0.00 0.00 99 1015.4
20260902063255 77 114 0.9 0.9 0.00 0.00 0.00 99 1015.6
20260902062755 77 114 0.9 0.9 0.00 0.00 0.00 99 1015.5
20260902062250 77 114 0.9 0.9 0.00 0.00 0.00 99 1015.6
20260902061748 77 114 0.9 0.9 0.00 0.00 0.00 99 1015.6
20260902061244 77 114 0.0 0.9 0.00 0.00 0.00 99 1015.6
20260902060741 77 114 0.9 0.9 0.00 0.00 0.00 99 1015.6
20260902060237 77 114 0.9 0.9 0.00 0.00 0.00 99 1015.5
20260902055732 78 114 0.0 0.9 0.00 0.00 0.00 99 1015.5
20260902055228 78 114 0.9 0.9 0.00 0.00 0.00 99 1015.3
20260902054723 77 114 0.9 0.9 0.00 0.00 0.00 98 1015.5
20260902054219 77 114 0.0 0.0 0.00 0.00 0.00 98 1015.5
20260902053714 78 114 0.9 0.9 0.00 0.00 0.00 98 1015.5
20260902053214 78 114 0.9 1.7 0.00 0.00 0.00 98 1015.7
20260902052713 78 115 0.0 0.0 0.00 0.00 0.00 98 1015.8
20260902052209 78 115 0.9 1.7 0.00 0.00 0.00 98 1015.8
20260902051708 78 99 0.9 1.7 0.00 0.00 0.00 98 1015.6
20260902051202 78 99 0.9 0.9 0.00 0.00 0.00 98 1015.6
20260902050657 78 99 0.0 0.9 0.00 0.00 0.00 98 1015.8
20260902050152 78 99 0.0 0.9 0.00 0.00 0.00 98 1015.8
20260902045647 78 99 0.0 0.9 0.00 1.06 1.06 98 1015.7
20260902045144 78 99 0.9 1.7 0.00 1.06 1.06 98 1015.8
20260902044643 78 100 0.0 1.7 0.00 1.06 1.06 97 1015.8
20260902044140 78 102 0.0 0.9 0.00 1.06 1.06 97 1015.9
20260902043635 78 102 0.9 0.9 0.00 1.06 1.06 97 1015.8
20260902043130 78 141 0.9 0.9 0.00 1.06 1.06 97 1015.9
20260902042629 78 142 0.0 1.7 0.00 1.06 1.06 97 1015.8
20260902042125 78 142 0.0 0.0 0.00 1.06 1.06 97 1015.6
20260902041624 79 142 0.0 1.7 0.00 1.06 1.06 96 1015.8
20260902041119 79 130 0.0 1.7 0.00 1.06 1.06 96 1015.8
20260902040619 79 108 0.0 0.9 0.00 1.06 1.06 96 1015.9
20260902040114 79 113 1.7 1.7 0.00 1.06 1.06 96 1015.9
20260902035612 79 111 0.0 0.9 0.00 1.06 1.06 96 1015.8
20260902035108 79 112 1.7 2.6 0.00 1.06 1.06 96 1015.7
20260902034607 79 97 0.9 2.6 0.00 1.06 1.06 96 1015.9
20260902034107 79 90 1.7 2.6 0.00 1.06 1.06 96 1015.9
20260902033606 79 100 1.7 2.6 0.00 1.06 1.06 96 1016.0
20260902033101 79 106 1.7 1.7 0.00 1.06 1.06 97 1015.8
20260902032559 79 95 0.9 0.9 0.00 1.06 1.06 97 1016.0
20260902032055 79 94 1.7 1.7 0.00 1.06 1.06 96 1016.0
20260902031549 79 113 3.5 5.2 0.00 1.06 1.06 96 1016.1
20260902031046 79 108 2.6 2.6 0.00 1.06 1.06 97 1015.9
20260902030546 79 90 0.9 1.7 0.00 1.06 1.06 97 1015.6
20260902030046 79 89 1.7 2.6 0.00 1.06 1.06 97 1015.8
20260902025546 79 97 0.9 2.6 0.00 1.06 1.06 97 1015.7
20260902025041 79 79 1.7 2.6 0.00 1.06 1.06 97 1015.7
20260902024536 79 93 0.9 0.9 0.00 1.06 1.06 97 1015.5
20260902024031 79 96 0.9 0.9 0.00 1.06 1.06 97 1015.8
20260902023527 79 96 0.9 1.7 0.00 1.06 1.06 97 1015.5
20260902023022 79 106 1.7 1.7 0.00 1.06 1.06 97 1015.6
20260902022521 79 98 0.9 1.7 0.00 1.06 1.06 97 1015.3
20260902022018 79 96 0.9 0.9 0.00 1.06 1.06 97 1015.5
20260902021513 79 96 0.0 0.9 0.00 1.06 1.06 97 1015.4
20260902021008 79 96 0.0 0.9 0.00 1.06 1.06 97 1015.2
20260902020503 80 95 0.0 1.7 0.00 1.06 1.06 96 1015.2
20260902015959 80 94 0.9 0.9 0.00 1.06 1.06 97 1014.9
20260902015455 79 95 1.7 1.7 0.00 1.06 1.06 97 1015.1
20260902014950 79 97 0.9 0.9 0.00 1.06 1.06 97 1015.0
20260902014446 79 97 0.0 0.9 0.00 1.06 1.06 96 1015.2
20260902013946 80 97 0.0 0.0 0.00 1.06 1.06 96 1014.8
20260902013441 80 97 0.0 0.0 0.00 1.06 1.06 96 1014.8
20260902012936 80 97 0.0 0.9 0.00 1.06 1.06 95 1014.8
20260902012432 80 97 0.0 0.9 0.00 1.06 1.06 95 1014.8
20260902011927 80 97 0.9 0.9 0.00 1.06 1.06 95 1014.9
20260902011422 80 97 0.0 0.9 0.00 1.06 1.06 94 1014.8
20260902010922 80 97 0.9 0.9 0.00 1.06 1.06 94 1014.8
20260902010417 80 96 1.7 2.6 0.00 1.06 1.06 94 1014.7
20260902005916 80 92 1.7 3.5 0.00 1.06 1.06 93 1014.8
20260902005415 80 94 1.7 2.6 0.00 1.06 1.06 93 1014.9
20260902004912 80 93 0.9 2.6 0.00 1.06 1.06 93 1014.7
20260902004411 81 97 1.7 2.6 0.00 1.06 1.06 93 1014.9
20260902003906 81 94 0.9 1.7 0.00 1.06 1.06 92 1014.8
20260902003401 81 78 0.0 0.9 0.00 1.06 1.06 92 1014.7
20260902002857 81 81 0.0 1.7 0.00 1.06 1.06 92 1014.7
20260902002356 81 90 1.7 1.7 0.00 1.06 1.06 91 1014.6
20260902001851 81 93 1.7 1.7 0.00 1.06 1.06 91 1014.7
20260902001346 82 95 1.7 2.6 0.00 1.06 1.06 90 1014.7
20260902000841 82 101 0.9 2.6 0.00 1.06 1.06 90 1014.9
20260902000337 82 96 0.0 1.7 0.00 1.06 1.06 89 1014.8
20260901235831 82 88 3.5 3.5 0.00 1.06 1.06 88 1015.1
20260901235331 82 91 1.7 2.6 0.00 1.06 1.06 88 1014.9
20260901234826 82 106 1.7 3.5 0.00 1.06 1.06 88 1015.1
20260901234322 82 103 3.5 3.5 0.00 1.06 1.06 87 1014.9
20260901233816 82 94 1.7 2.6 0.00 1.06 1.06 87 1014.9
20260901233311 82 93 3.5 5.2 0.00 1.06 1.06 87 1014.9
20260901232807 82 97 3.5 3.5 0.00 1.06 1.06 87 1014.8
20260901232301 83 89 0.9 5.2 0.00 1.06 1.06 87 1014.8
20260901231758 83 77 3.5 6.1 0.00 1.06 1.06 87 1014.8
20260901231254 83 106 3.5 5.2 0.00 1.06 1.06 86 1014.7
20260901230749 83 112 1.7 7.0 0.00 1.06 1.06 86 1014.7
20260901230248 83 97 3.5 6.1 0.00 1.06 1.06 86 1014.5
20260901225744 83 87 6.1 8.7 0.00 1.06 1.06 85 1014.5
20260901225238 83 102 4.3 6.1 0.00 1.06 1.06 85 1014.6
20260901224734 83 89 3.5 7.0 0.00 1.06 1.06 84 1014.6
20260901224230 83 106 2.6 5.2 0.00 1.06 1.06 84 1014.3
20260901223721 83 89 3.5 6.1 0.00 1.06 1.06 84 1014.3
20260901223220 83 86 3.5 8.7 0.00 1.06 1.06 84 1014.4
20260901222717 84 112 5.2 7.0 0.00 1.06 1.06 83 1014.4
20260901222213 84 85 3.5 5.2 0.00 1.06 1.06 83 1014.6
20260901221709 83 96 2.6 7.0 0.00 1.06 1.06 83 1014.5
20260901221204 83 106 6.1 7.8 0.00 1.06 1.06 83 1014.3
20260901220703 83 94 5.2 8.7 0.00 1.06 1.06 83 1014.4
20260901220203 83 86 4.3 8.7 0.00 1.06 1.06 84 1014.5
20260901215701 83 93 4.3 8.7 0.00 1.06 1.06 84 1014.6
20260901215156 83 77 6.1 8.7 0.00 1.06 1.06 83 1014.5
20260901214654 83 85 7.0 8.7 0.00 1.06 1.06 83 1014.6
20260901214149 83 65 5.2 8.7 0.00 1.06 1.06 83 1014.6
20260901213649 83 84 5.2 7.0 0.00 1.06 1.06 82 1014.7
20260901213143 83 111 7.0 7.8 0.00 1.06 1.06 82 1014.8
20260901212643 83 63 2.6 9.6 0.00 1.06 1.06 83 1014.6
20260901212139 83 121 6.1 7.8 0.00 1.06 1.06 82 1014.8
20260901211634 83 89 5.2 7.8 0.00 1.06 1.06 82 1014.9
20260901211131 83 76 2.6 3.5 0.00 1.06 1.06 83 1015.1
20260901210626 83 72 3.5 7.0 0.00 1.06 1.06 82 1014.9
20260901210122 84 81 5.2 6.1 0.00 1.06 1.06 81 1015.2
20260901205618 84 80 7.0 7.0 0.00 1.06 1.06 80 1015.3
20260901205117 84 62 7.8 8.7 0.00 1.06 1.06 79 1015.4
20260901204613 85 90 8.7 9.6 0.00 1.06 1.06 79 1015.5
20260901204108 85 76 5.2 7.8 0.00 1.06 1.06 78 1015.6
20260901203607 86 168 5.2 8.7 0.00 1.06 1.06 78 1015.4
20260901203102 85 99 5.2 7.0 0.00 1.06 1.06 80 1015.5
20260901202602 85 84 4.3 7.8 0.00 1.06 1.06 80 1015.5
20260901202058 86 108 3.5 5.2 0.00 1.06 1.06 80 1015.4
20260901201554 85 101 3.5 5.2 0.00 1.06 1.06 80 1015.3
20260901201053 84 107 1.7 2.6 0.00 1.06 1.06 83 1015.2
20260901200553 84 72 5.2 7.8 0.00 1.06 1.06 83 1015.4
20260901200048 84 105 2.6 9.6 0.00 1.06 1.06 84 1015.6
20260901195545 84 109 4.3 7.8 0.00 1.06 1.06 83 1016.0
20260901195045 84 90 2.6 6.1 0.00 1.06 1.06 85 1015.7
20260901194541 84 99 6.1 7.8 0.00 1.06 1.06 84 1016.0
20260901194036 84 105 6.1 7.8 0.00 1.06 1.06 84 1015.8
20260901193536 84 107 2.6 3.5 0.00 1.06 1.06 85 1015.8
20260901193031 83 92 6.1 7.0 0.00 1.06 1.06 85 1015.9
20260901192526 83 87 6.1 9.6 0.00 1.06 1.06 87 1015.8
20260901192022 83 93 6.1 8.7 0.00 1.06 1.06 87 1015.9
20260901191518 82 89 3.5 8.7 0.00 1.06 1.06 87 1015.7
20260901191013 82 89 4.3 5.2 0.00 1.06 1.06 88 1015.7
20260901190508 81 83 3.5 6.1 0.00 1.06 1.06 88 1015.8
20260901190007 81 98 4.3 5.2 0.00 1.06 1.06 91 1015.7
20260901185501 81 82 0.9 6.1 0.00 1.06 1.06 92 1015.9
20260901185000 80 90 1.7 3.5 0.00 1.06 1.06 93 1015.8
20260901184455 80 106 4.3 6.1 0.00 1.06 1.06 93 1015.9
20260901183951 79 88 1.7 3.5 0.00 1.06 1.06 94 1015.9
20260901183451 79 98 0.9 1.7 0.00 1.06 1.06 96 1016.1
20260901182946 78 86 0.9 2.6 0.00 1.06 1.06 96 1016.1
20260901182443 78 72 1.7 3.5 0.00 1.06 1.06 97 1016.2
20260901181943 78 92 2.6 6.1 0.00 1.06 1.06 97 1016.2
20260901181443 78 89 1.7 2.6 0.00 1.06 1.06 98 1016.5
20260901180942 77 80 2.6 3.5 0.00 1.06 1.06 98 1016.5
20260901180442 77 82 1.7 1.7 0.00 1.06 1.06 98 1016.2
20260901175939 77 102 0.9 3.5 0.00 1.06 1.06 98 1016.3
20260901175435 77 94 0.9 1.7 0.00 1.06 1.06 98 1016.1
20260901174930 76 92 1.7 2.6 0.00 1.06 1.06 98 1016.1
20260901174426 76 95 1.7 1.7 0.00 1.06 1.06 98 1016.0
20260901173921 76 95 1.7 1.7 0.00 1.06 1.06 98 1016.4
20260901173416 76 95 0.0 0.9 0.00 1.06 1.06 98 1016.2
20260901172912 76 94 0.9 0.9 0.07 1.06 1.06 98 1016.3
20260901172407 76 96 2.6 5.2 0.07 1.06 1.06 98 1016.3
20260901171905 76 93 1.7 3.5 0.00 1.05 1.05 98 1016.4
20260901171403 76 82 1.7 5.2 0.00 1.05 1.05 98 1016.5
20260901170902 76 78 2.6 3.5 0.00 1.05 1.05 98 1016.6
20260901170358 76 96 3.5 6.1 0.00 1.05 1.05 98 1016.6
20260901165852 76 89 3.5 5.2 0.05 1.05 1.05 98 1016.6
20260901165351 76 100 0.9 2.6 0.07 1.04 1.04 98 1016.5
20260901164848 75 102 3.5 3.5 0.26 1.04 1.04 98 1016.6
20260901164343 76 92 4.3 5.2 0.59 1.03 1.03 97 1016.7
20260901163843 77 123 4.3 7.8 0.54 0.99 0.99 97 1016.9
20260901163338 79 127 11.3 14.8 0.90 0.83 0.83 95 1016.9
20260901162833 79 124 1.7 1.7 0.00 0.68 0.68 95 1016.4
20260901162332 79 136 0.0 1.7 0.00 0.68 0.68 95 1016.2
20260901161832 79 89 1.7 0.9 0.00 0.68 0.68 96 1016.2
20260901161326 78 92 3.5 5.2 0.05 0.68 0.68 95 1016.2
20260901160821 78 69 3.5 3.5 0.42 0.68 0.68 96 1016.2
20260901160318 78 80 1.7 7.0 0.80 0.67 0.67 96 1016.1
20260901155817 79 137 3.5 8.7 0.71 0.59 0.59 95 1016.5
20260901155312 79 83 6.1 7.0 0.17 0.50 0.50 96 1016.6
20260901154809 79 99 0.9 2.6 0.12 0.47 0.47 95 1016.5
20260901154307 79 93 1.7 7.8 0.61 0.47 0.47 94 1016.4
20260901153802 80 102 4.3 6.1 0.71 0.44 0.44 94 1016.6
20260901153302 80 89 3.5 6.1 0.24 0.35 0.35 95 1016.4
20260901152801 80 96 2.6 5.2 0.05 0.31 0.31 96 1016.6
20260901152300 80 89 2.6 2.6 0.35 0.31 0.31 95 1016.3
20260901151755 80 100 2.6 2.6 0.31 0.30 0.30 94 1016.2
20260901151250 80 96 1.7 2.6 0.12 0.25 0.25 95 1016.2
20260901150749 80 64 3.5 7.0 0.12 0.25 0.25 94 1016.2
20260901150248 81 67 4.3 7.8 0.00 0.23 0.23 93 1016.1
20260901145746 81 73 3.5 5.2 0.00 0.23 0.23 91 1016.3
20260901145245 81 68 2.6 6.1 0.00 0.23 0.23 91 1016.0
20260901144741 81 104 1.7 3.5 0.00 0.23 0.23 92 1016.2
20260901144237 81 82 3.5 3.5 0.00 0.23 0.23 91 1016.3
20260901143732 81 81 1.7 2.6 0.00 0.23 0.23 92 1016.2
20260901143228 80 87 3.5 3.5 0.00 0.23 0.23 92 1016.1
20260901142724 81 103 2.6 2.6 0.00 0.23 0.23 91 1016.1
20260901142223 80 86 2.6 5.2 0.00 0.23 0.23 91 1016.0
20260901141719 81 48 4.3 7.8 0.00 0.23 0.23 90 1015.8
20260901141218 81 90 3.5 5.2 0.00 0.23 0.23 89 1015.8
20260901140718 80 79 2.6 5.2 0.00 0.23 0.23 90 1016.0
20260901140216 80 89 3.5 7.0 0.00 0.23 0.23 90 1015.8
20260901135711 80 85 3.5 5.2 0.00 0.23 0.23 89 1015.9
20260901135206 80 101 3.5 2.6 0.00 0.23 0.23 91 1015.9
20260901134702 80 97 1.7 1.7 0.00 0.23 0.23 92 1015.9
20260901134157 79 98 0.9 1.7 0.00 0.23 0.23 93 1015.8
20260901133656 79 97 2.6 5.2 0.00 0.23 0.23 93 1015.9
20260901133155 78 95 0.9 2.6 0.00 0.23 0.23 95 1015.7
20260901132654 78 99 0.9 2.6 0.00 0.23 0.23 94 1015.9
20260901132149 78 107 3.5 3.5 0.07 0.23 0.23 94 1015.7
20260901131644 77 79 4.3 5.2 0.12 0.23 0.23 94 1015.8
20260901131143 77 70 2.6 3.5 0.05 0.22 0.22 94 1015.7
20260901130638 77 82 2.6 5.2 0.00 0.21 0.21 94 1015.9
20260901130137 77 95 2.6 3.5 0.00 0.21 0.21 94 1016.1
20260901125636 77 84 1.7 1.7 0.00 0.21 0.21 94 1016.1
20260901125131 77 102 3.5 3.5 0.00 0.21 0.21 94 1016.2
20260901124626 77 191 2.6 3.5 0.00 0.21 0.21 94 1015.8
20260901124125 77 83 1.7 2.6 0.00 0.21 0.21 94 1015.7
20260901123625 77 91 1.7 2.6 0.00 0.21 0.21 94 1015.5
20260901123120 77 81 3.5 6.1 0.00 0.21 0.21 93 1015.1
20260901122618 77 89 3.5 2.6 0.00 0.21 0.21 94 1015.3
20260901122113 77 81 2.6 5.2 0.00 0.21 0.21 94 1015.2
20260901121608 77 85 5.2 5.2 0.00 0.21 0.21 95 1015.1
20260901121103 77 77 3.5 5.2 0.00 0.21 0.21 95 1015.3
20260901120603 77 89 2.6 5.2 0.00 0.21 0.21 96 1015.2
20260901120058 77 78 3.5 5.2 0.00 0.21 0.21 96 1015.1
20260901115553 77 86 2.6 5.2 0.00 0.21 0.21 96 1015.2
20260901115050 77 76 4.3 5.2 0.00 0.21 0.21 96 1015.3
20260901114546 77 77 2.6 3.5 0.00 0.21 0.21 95 1015.1
20260901114044 77 99 2.6 3.5 0.00 0.21 0.21 96 1015.0
20260901113543 77 89 3.5 3.5 0.00 0.21 0.21 95 1015.0
20260901113040 77 84 2.6 5.2 0.00 0.21 0.21 95 1014.8
20260901112539 77 83 1.7 2.6 0.00 0.21 0.21 96 1015.1
20260901112034 77 96 2.6 5.2 0.07 0.21 0.21 96 1014.9
20260901111533 77 92 1.7 2.6 0.12 0.21 0.21 97 1014.9
20260901111031 77 106 2.6 2.6 0.00 0.19 0.19 98 1015.2